SCP
0 0 0 0 0 0 0 0 0 0 0 0 0 0 0 0 0 0 1 1 1 1 1 1 1 1 1 1 1 1 1 2 2 2 2 2 3 2 2 2 2 2 2
0 0 0 0 0 0 0 0 0 0 0 0 0 0 0 0 0 0 1 1 1 1 1 1 1 1 1 1 1 1 1 2 2 2 2 2 2 2 2 2 2 2 2
0 0 0 0 0 0 0 0 0 0 0 1 1 1 1 1 0 0 0 1 1 1 1 0 0 1 1 1 1 1 1 1 2 2 2 2 2 2 2 2 2 2 2
0 0 0 0 0 0 0 1 0 0 0 0 0 0 0 1 0 0 0 0 1 1 1 1 1 1 1 1 1 1 1 2 2 2 1 1 2 2 2 3 3 2 2
0 0 0 0 0 0 1 1 0 0 0 0 0 0 0 0 0 0 0 0 0 0 0 0 1 1 1 1 1 1 1 2 2 2 2 1 1 2 3 4 4 3 2
0 0 0 0 0 0 0 0 0 0 0 0 0 0 0 0 0 0 0 0 0 0 0 0 0 1 1 1 1 1 1 2 2 2 2 1 1 1 2 3 3 2 2
0 0 0 0 0 0 0 0 0 0 0 0 0 0 0 0 0 0 0 0 0 0 0 0 0 1 1 1 1 1 1 2 2 2 2 1 1 1 1 2 2 2 1
0 0 0 0 0 0 0 0 0 0 0 0 0 0 0 0 0 0 0 0 0 0 0 0 1 0 0 0 0 1 1 1 2 2 2 2 1 1 1 1 1 1 1
0 0 0 0 0 0 0 0 0 0 0 0 0 0 0 0 0 0 0 0 0 0 0 0 0 0 0 0 0 0 0 1 1 1 2 2 1 1 1 1 1 1 1
0 0 0 0 0 0 0 0 0 0 0 0 0 0 0 0 0 0 0 0 0 0 0 0 0 0 0 0 0 0 0 1 1 1 1 2 1 1 1 1 1 1 1
0 0 0 0 0 0 0 0 0 0 0 0 0 0 0 0 0 0 0 0 0 0 0 0 0 0 0 0 0 0 0 0 1 1 1 1 1 1 1 1 1 1 1
0 0 0 0 0 0 0 0 0 0 0 0 0 0 0 0 0 0 0 0 0 0 0 0 0 0 0 0 0 0 0 0 0 1 1 1 1 1 1 1 1 1 1
0 0 0 0 0 0 0 0 0 0 0 0 0 0 0 0 0 0 0 0 0 0 0 0 0 0 0 0 0 0 0 0 0 0 1 1 1 1 1 1 1 1 1
0 0 0 0 0 0 0 0 0 0 0 0 0 0 0 0 0 0 0 0 0 0 0 0 0 0 0 0 0 0 0 0 0 0 0 1 1 1 1 1 1 1 1
0 0 0 0 0 0 0 0 0 0 0 0 0 0 0 0 0 0 0 0 0 0 0 0 0 0 0 0 0 0 0 0 0 0 0 1 1 1 1 1 1 1 1
0 0 0 0 0 0 0 0 0 0 0 0 0 0 0 0 0 0 0 0 0 0 0 0 0 0 0 0 0 0 0 0 0 0 0 0 0 0 0 0 0 1 1
0 0 0 0 0 0 0 0 0 0 0 0 0 0 0 0 0 0 0 0 0 0 0 0 0 0 0 0 0 0 0 0 0 0 0 0 0 0 0 0 0 0 0
1 1 1 1 0 0 0 0 0 0 0 0 0 0 0 0 0 0 0 0 0 0 0 0 0 0 0 0 0 0 0 0 0 0 0 0 0 0 0 0 0 0 0
1 1 1 1 1 1 1 0 0 0 0 0 0 0 0 0 0 0 0 0 0 0 0 0 0 0 0 0 0 0 0 0 0 0 0 0 0 0 0 0 0 0 0
1 1 1 1 1 1 1 1 1 1 1 0 0 0 0 1 1 1 0 0 0 0 0 0 0 0 0 0 0 0 0 0 0 0 0 0 0 0 0 0 0 0 0
2 1 1 1 1 1 1 1 1 1 1 1 0 0 0 1 1 1 1 0 0 0 0 0 0 0 0 0 0 0 0 0 0 0 0 0 0 0 0 0 0 0 0
2 1 1 1 1 1 1 1 1 1 1 1 1 1 1 1 1 1 1 0 0 0 0 0 0 0 0 0 0 0 0 0 0 0 0 0 0 0 0 0 0 0 0
2 2 1 1 1 1 0 0 1 1 1 1 1 1 1 1 1 1 1 0 0 0 0 0 0 0 0 0 0 0 0 0 0 0 0 0 0 0 0 0 0 0 0
3 3 2 2 1 1 0 0 0 1 1 1 1 1 1 1 1 1 0 0 0 0 0 0 0 0 0 0 0 0 0 0 0 0 0 0 0 0 0 0 0 0 0
3 3 3 2 2 1 0 0 0 1 1 1 1 1 1 1 1 0 0 0 0 0 0 0 0 0 0 0 0 0 0 0 0 0 0 0 0 0 0 0 0 0 0
4 3 3 2 2 1 1 0 0 1 1 1 1 1 1 1 0 0 0 0 0 0 0 0 0 0 0 0 0 0 0 0 0 0 0 0 0 0 0 0 0 0 0
Wind_Speed
2 2 2 3 3 3 3 3 4 5 5 5 5 6 6 6 6 5 4 11 12 12 11 11 10 10 10 10 9 8 8 8 8 8 8 8 8 8 8 9 9 9 9
2 3 4 3 3 3 3 3 4 4 3 4 5 6 5 5 5 5 4 6 10 11 11 11 10 10 10 10 11 10 9 8 8 8 7 8 8 8 9 9 9 9 9
3 3 3 3 2 3 3 3 4 3 4 4 5 5 4 4 4 4 4 3 4 8 11 11 12 11 10 9 9 9 9 9 8 8 7 7 8 8 8 8 9 9 9
4 4 3 2 3 3 3 3 3 3 3 3 3 3 3 3 4 4 3 4 3 4 7 11 11 11 10 9 9 8 9 9 9 8 7 7 7 7 7 8 8 8 8
4 4 3 2 3 3 2 3 3 3 3 3 2 3 3 3 3 4 4 4 4 4 3 6 9 10 11 10 9 9 9 10 10 9 8 7 7 7 7 8 7 7 7
4 4 2 3 3 3 3 3 3 2 2 2 3 4 2 2 3 4 4 4 4 4 4 4 3 6 10 10 10 9 9 10 9 9 9 8 8 8 7 7 7 7 7
3 3 2 3 3 3 2 3 3 2 1 2 3 2 2 3 4 3 3 3 4 3 3 3 3 3 4 9 10 9 8 9 9 9 9 9 9 8 8 7 8 7 7
3 2 3 2 2 2 3 3 2 1 1 1 1 1 1 2 3 3 2 3 3 3 3 4 3 3 3 3 7 10 8 7 8 9 9 9 9 8 7 7 7 7 7
2 2 2 2 2 2 2 2 2 2 1 2 2 1 1 1 1 2 2 2 2 3 2 3 4 4 4 3 3 7 9 7 8 8 9 9 8 8 8 7 7 8 8
2 2 2 2 2 2 2 1 2 1 1 1 2 2 1 2 2 1 2 2 2 3 3 3 4 4 4 3 4 7 8 8 8 8 8 8 8 8 8 8 7 8 8
1 2 1 1 1 2 2 2 2 2 1 1 1 1 2 1 1 2 0 1 2 2 2 2 2 2 3 3 3 6 8 8 8 7 7 7 7 7 8 7 7 7 7
1 1 1 1 1 1 1 2 2 2 1 1 1 1 1 1 1 1 1 0 1 1 1 2 2 2 2 3 4 7 7 7 7 7 7 7 6 6 7 7 7 6 6
0 1 1 1 1 1 2 1 1 1 1 1 1 1 1 1 1 1 1 0 0 1 1 1 1 2 2 2 3 6 5 6 6 6 6 6 5 6 6 6 6 6 5
1 1 1 1 1 1 1 1 1 1 1 1 1 1 1 1 1 1 1 2 1 1 1 1 1 2 2 2 3 4 3 4 4 4 5 5 5 5 5 5 5 5 5
1 1 1 1 2 1 1 1 0 0 1 1 1 1 1 1 1 1 1 2 2 1 1 0 1 1 1 2 3 2 1 2 3 4 4 4 4 4 4 5 4 4 4
1 1 1 1 2 2 2 2 1 0 1 1 1 1 1 0 1 1 1 0 1 2 1 1 0 0 1 2 3 2 2 3 3 3 3 3 3 3 3 4 4 4 4
2 2 2 2 2 2 2 2 1 1 1 1 1 1 1 1 1 1 1 1 1 1 1 1 1 0 1 1 1 1 1 2 2 3 3 3 3 3 3 3 3 3 3
2 2 1 1 2 2 2 2 2 1 1 1 1 1 1 1 1 0 0 0 0 1 2 1 0 0 0 1 1 1 1 2 2 3 3 3 2 2 2 3 3 3 3
1 1 1 1 1 2 2 2 2 2 1 1 1 1 1 1 1 1 1 0 0 1 1 1 1 0 0 1 1 0 1 0 1 2 2 2 2 2 2 2 2 2 2
1 1 1 1 0 1 1 1 1 1 1 1 1 1 1 2 2 1 1 1 1 1 1 1 1 1 1 1 1 0 0 0 0 1 1 1 1 2 1 1 1 1 1
1 1 1 1 0 0 0 0 1 1 1 1 1 1 1 2 2 1 1 1 1 1 1 1 1 1 1 1 1 1 1 1 1 1 1 1 1 0 1 2 1 1 1
0 0 0 0 0 0 1 1 0 1 1 1 1 1 1 2 2 2 0 1 1 2 2 2 2 2 2 2 1 1 1 1 1 1 1 1 1 1 1 1 2 3 3
0 0 0 0 1 1 1 1 2 2 2 2 1 1 0 1 2 2 1 1 2 2 3 3 3 3 3 3 2 2 2 2 2 2 1 1 1 2 2 2 4 4 4
1 1 1 0 1 1 2 2 3 2 1 1 1 2 2 1 1 1 1 1 1 1 2 2 3 3 3 3 4 4 3 2 2 1 2 2 2 2 2 2 5 6 5
1 1 1 1 1 1 1 1 1 1 1 2 1 1 1 2 1 0 1 1 2 2 3 3 3 3 3 3 2 1 1 1 2 2 2 2 2 2 2 2 4 7 6
2 1 1 1 1 1 1 1 1 1 1 1 1 1 1 1 1 1 1 2 2 2 2 2 2 2 3 3 4 3 4 3 1 2 2 2 1 1 1 2 2 2 3
Wind_Direction
68 65 73 69 71 69 63 54 61 57 52 52 59 66 66 67 76 71 68 67 64 60 58 56 56 56 55 56 58 65 69 70 71 75 74 75 74 74 72 73 73 72 70
73 67 68 63 65 62 66 69 75 63 60 61 61 62 65 66 77 81 82 70 66 63 58 56 53 53 56 60 59 61 63 70 74 76 76 78 78 78 76 77 75 75 74
76 75 75 74 74 66 62 62 63 63 62 63 62 63 65 61 71 72 79 83 71 62 61 60 56 54 56 60 62 65 64 65 69 74 77 82 82 82 82 81 76 75 75
70 68 68 73 76 71 64 67 66 60 59 59 58 59 65 64 69 68 65 71 72 70 66 64 59 55 54 55 61 68 72 69 67 69 75 80 83 85 88 83 81 78 77
66 70 61 61 70 74 70 65 65 66 64 59 63 68 60 57 61 68 62 62 65 69 71 69 61 55 53 51 55 67 70 70 69 67 69 74 83 88 91 87 86 84 83
64 67 64 57 60 65 68 71 74 64 62 60 63 62 61 63 57 60 58 58 61 65 65 70 63 54 55 51 54 61 67 69 70 69 70 74 80 87 89 86 86 85 82
72 70 57 58 52 62 70 78 81 74 64 70 77 53 40 61 68 65 60 54 55 56 54 57 61 58 53 52 50 55 64 68 68 72 72 72 75 78 80 80 81 80 81
67 78 86 82 69 60 55 62 66 57 18 38 81 96 60 30 29 58 63 65 56 50 44 52 64 65 63 51 48 48 52 63 67 70 72 69 67 71 77 78 80 80 81
68 59 67 90 96 93 86 77 71 64 5 351 27 81 107 119 2 18 55 66 69 60 44 38 49 59 69 66 55 46 48 52 64 67 68 67 65 65 71 74 76 77 79
65 66 67 69 86 81 98 100 83 62 53 2 350 14 80 127 117 25 11 37 62 65 60 53 45 40 62 74 69 62 55 50 54 60 64 67 65 64 71 74 73 73 77
62 64 72 60 83 92 100 85 78 66 56 51 19 5 30 33 76 120 83 1 24 35 59 71 64 47 62 77 80 75 67 55 53 54 57 62 65 68 69 72 75 76 78
78 84 107 82 80 104 102 96 98 88 67 45 41 44 57 57 74 98 117 75 33 345 47 71 78 73 70 84 84 88 79 64 55 52 52 52 58 63 67 69 73 77 77
179 234 142 131 131 126 116 100 99 117 104 79 60 50 43 41 99 111 109 105 18 310 58 58 85 99 90 91 92 92 84 76 64 57 54 50 54 62 65 66 68 69 69
197 187 150 140 116 98 107 98 76 81 102 99 83 82 59 37 42 102 127 126 75 345 23 17 37 77 87 92 100 100 85 87 78 72 64 56 58 65 68 65 59 59 61
196 176 165 152 136 121 111 108 107 118 100 113 106 86 83 68 27 52 96 135 144 154 293 319 21 44 97 94 110 105 88 102 94 93 79 67 62 66 66 62 56 49 56
176 183 213 179 157 154 152 138 153 209 162 141 132 117 97 103 54 52 71 23 110 137 176 273 308 259 86 100 111 111 97 99 103 107 98 86 73 70 68 62 56 48 58
184 195 204 190 169 161 157 151 174 214 196 140 146 183 188 155 104 53 45 40 51 104 133 288 323 68 74 84 81 92 101 108 117 112 113 105 93 80 72 68 59 49 57
188 187 196 203 184 168 162 168 191 201 165 145 187 196 203 145 121 124 83 98 130 149 149 194 280 230 129 136 121 109 93 107 126 116 119 119 111 98 81 74 64 57 62
175 189 189 210 203 171 168 203 193 187 182 180 181 197 191 147 159 157 142 74 144 109 124 152 233 266 293 134 104 86 98 109 144 140 137 134 132 121 100 81 73 68 70
179 181 206 193 219 177 178 208 193 166 179 185 176 183 183 164 153 153 151 163 131 113 114 138 192 229 238 211 141 162 339 317 251 168 151 161 172 162 153 141 107 98 94
151 158 184 165 62 123 145 284 208 194 202 207 192 194 195 149 110 114 143 186 175 173 165 174 212 221 230 216 217 215 216 249 274 199 178 195 181 200 202 203 192 191 189
65 61 155 145 128 296 294 277 285 243 227 212 218 210 190 142 113 101 52 248 203 190 188 192 219 212 233 231 215 214 211 214 266 234 166 226 180 205 222 200 193 193 204
122 353 285 223 183 272 265 252 265 261 240 225 207 185 188 154 137 139 205 274 278 240 204 204 210 221 217 215 197 208 236 237 235 219 161 245 211 212 217 203 194 200 202
175 191 221 227 197 282 289 245 255 246 238 238 202 178 169 146 129 133 178 210 254 261 247 235 222 228 219 206 202 203 212 237 270 223 159 212 225 224 223 204 199 199 200
203 212 187 204 209 258 310 324 263 246 233 238 222 147 139 146 202 140 169 203 235 274 281 272 273 256 253 235 222 178 182 183 259 250 198 186 220 232 229 215 213 205 201
207 214 202 200 200 194 228 332 268 228 239 252 234 207 198 180 270 233 197 199 225 254 255 272 282 275 248 222 225 201 184 191 226 248 217 179 209 197 264 236 193 193 208